| time (UTC) | temp F | wind direction | speed knots | gust knots | rain 1hr in | rain 24hr in | rain mn in | humidity % | barometer mb |
| 20260507030003 | 58 | 309 | 2.6 | 4.3 | 0.00 | 0.22 | 0.22 | 80 | 1010.3 |
| 20260507024502 | 59 | 334 | 0.9 | 4.3 | 0.00 | 0.22 | 0.22 | 79 | 1010.3 |
| 20260507023103 | 59 | 319 | 1.7 | 4.3 | 0.00 | 0.22 | 0.22 | 79 | 1010.0 |
| 20260507021559 | 59 | 324 | 1.7 | 5.2 | 0.01 | 0.22 | 0.22 | 80 | 1010.0 |
| 20260507020104 | 59 | 319 | 0.9 | 2.6 | 0.01 | 0.22 | 0.22 | 80 | 1010.1 |
| 20260507014607 | 60 | 324 | 0.9 | 4.3 | 0.01 | 0.22 | 0.22 | 79 | 1010.2 |
| 20260507013055 | 60 | 298 | 3.5 | 8.7 | 0.01 | 0.22 | 0.22 | 78 | 1010.2 |
| 20260507011601 | 61 | 329 | 2.6 | 7.8 | 0.00 | 0.21 | 0.21 | 79 | 1010.2 |
| 20260507010049 | 61 | 319 | 3.5 | 8.7 | 0.00 | 0.21 | 0.21 | 79 | 1010.0 |
| 20260507004546 | 62 | 334 | 2.6 | 5.2 | 0.00 | 0.21 | 0.21 | 80 | 1009.8 |
| 20260507003046 | 62 | 352 | 2.6 | 7.8 | 0.00 | 0.21 | 0.21 | 81 | 1009.7 |
| 20260507001552 | 63 | 350 | 2.6 | 7.8 | 0.00 | 0.21 | 0.21 | 84 | 1009.3 |
| 20260507000045 | 64 | 285 | 3.5 | 7.8 | 0.02 | 0.21 | 0.21 | 86 | 1008.7 |
| 20260506234545 | 65 | 275 | 0.9 | 5.2 | 0.02 | 0.21 | 0.21 | 85 | 1008.3 |
| 20260506233041 | 65 | 262 | 0.9 | 5.2 | 0.02 | 0.21 | 0.21 | 84 | 1007.9 |
| 20260506231542 | 66 | 228 | 2.6 | 7.0 | 0.02 | 0.21 | 0.21 | 83 | 1008.2 |
| 20260506230044 | 67 | 324 | 1.7 | 3.5 | 0.00 | 0.19 | 0.19 | 82 | 1008.3 |
| 20260506224541 | 67 | 309 | 1.7 | 4.3 | 0.00 | 0.19 | 0.19 | 81 | 1008.0 |
| 20260506223040 | 67 | 255 | 0.0 | 3.5 | 0.00 | 0.19 | 0.19 | 79 | 1007.8 |
| 20260506221539 | 67 | 284 | 2.6 | 5.2 | 0.00 | 0.19 | 0.19 | 78 | 1007.9 |
| 20260506220047 | 68 | 282 | 2.6 | 5.2 | 0.00 | 0.19 | 0.19 | 77 | 1007.6 |
| 20260506214538 | 68 | 226 | 1.7 | 4.3 | 0.00 | 0.19 | 0.19 | 77 | 1007.4 |
| 20260506213038 | 68 | 311 | 3.5 | 7.8 | 0.00 | 0.19 | 0.19 | 75 | 1007.4 |
| 20260506211538 | 69 | 260 | 2.6 | 7.8 | 0.00 | 0.19 | 0.19 | 74 | 1007.3 |
| 20260506210037 | 70 | 303 | 3.5 | 9.6 | 0.00 | 0.19 | 0.19 | 73 | 1007.2 |
| 20260506204536 | 70 | 311 | 2.6 | 9.6 | 0.00 | 0.19 | 0.19 | 75 | 1007.0 |
| 20260506203057 | 69 | 296 | 3.5 | 7.8 | 0.00 | 0.19 | 0.19 | 76 | 1007.1 |
| 20260506201534 | 68 | 277 | 3.5 | 11.3 | 0.00 | 0.19 | 0.19 | 76 | 1007.1 |
| 20260506200044 | 67 | 285 | 3.5 | 10.4 | 0.00 | 0.19 | 0.19 | 77 | 1007.2 |
| 20260506194532 | 67 | 246 | 1.7 | 7.0 | 0.00 | 0.19 | 0.19 | 77 | 1007.2 |
| 20260506193030 | 68 | 232 | 4.3 | 10.4 | 0.01 | 0.19 | 0.19 | 75 | 1007.3 |
| 20260506191529 | 67 | 122 | 3.5 | 7.0 | 0.01 | 0.19 | 0.19 | 78 | 1007.3 |
| 20260506190036 | 67 | 226 | 3.5 | 10.4 | 0.01 | 0.19 | 0.19 | 77 | 1007.5 |
| 20260506184527 | 67 | 284 | 4.3 | 12.2 | 0.01 | 0.19 | 0.19 | 76 | 1007.4 |
| 20260506183025 | 68 | 227 | 2.6 | 13.9 | 0.00 | 0.18 | 0.18 | 78 | 1007.6 |
| 20260506181523 | 64 | 239 | 0.9 | 8.7 | 0.00 | 0.18 | 0.18 | 84 | 1007.8 |
| 20260506180021 | 63 | 273 | 2.6 | 6.1 | 0.00 | 0.18 | 0.18 | 85 | 1008.0 |
| 20260506174519 | 63 | 225 | 3.5 | 7.8 | 0.00 | 0.18 | 0.18 | 85 | 1007.9 |
| 20260506173018 | 62 | 188 | 1.7 | 7.8 | 0.00 | 0.18 | 0.18 | 85 | 1008.0 |
| 20260506171518 | 62 | 237 | 2.6 | 8.7 | 0.00 | 0.18 | 0.18 | 86 | 1008.0 |
| 20260506170021 | 62 | 266 | 2.6 | 7.8 | 0.00 | 0.18 | 0.18 | 87 | 1008.0 |
| 20260506164516 | 62 | 307 | 1.7 | 7.0 | 0.00 | 0.18 | 0.18 | 87 | 1008.1 |
| 20260506163029 | 62 | 318 | 1.7 | 6.1 | 0.01 | 0.18 | 0.18 | 87 | 1008.0 |
| 20260506161515 | 62 | 220 | 1.7 | 6.1 | 0.02 | 0.18 | 0.18 | 87 | 1008.0 |
| 20260506160014 | 62 | 259 | 0.9 | 7.0 | 0.04 | 0.18 | 0.18 | 87 | 1008.3 |
| 20260506154527 | 62 | 192 | 0.9 | 7.0 | 0.07 | 0.18 | 0.18 | 88 | 1008.1 |
| 20260506153011 | 62 | 167 | 0.9 | 5.2 | 0.07 | 0.17 | 0.17 | 87 | 1007.4 |
| 20260506151514 | 61 | 188 | 0.0 | 6.1 | 0.06 | 0.16 | 0.16 | 87 | 1008.6 |
| 20260506150008 | 62 | 180 | 0.9 | 4.3 | 0.05 | 0.13 | 0.13 | 86 | 1008.6 |
| 20260506144507 | 62 | 220 | 0.9 | 5.2 | 0.06 | 0.11 | 0.11 | 86 | 1008.9 |
| 20260506143007 | 62 | 267 | 0.9 | 7.0 | 0.08 | 0.10 | 0.10 | 85 | 1009.0 |
| 20260506141504 | 62 | 130 | 3.5 | 8.7 | 0.07 | 0.09 | 0.09 | 84 | 1008.7 |
| 20260506140003 | 62 | 187 | 0.9 | 7.8 | 0.06 | 0.08 | 0.08 | 83 | 1008.4 |
| 20260506134600 | 62 | 200 | 0.9 | 3.5 | 0.04 | 0.05 | 0.05 | 81 | 1008.5 |
| 20260506134504 | 63 | 193 | 0.9 | 3.5 | 0.04 | 0.05 | 0.05 | 81 | 1008.4 |
| 20260506133058 | 63 | 196 | 0.9 | 3.5 | 0.02 | 0.02 | 0.02 | 80 | 1008.6 |
| 20260506131607 | 63 | 171 | 0.9 | 4.3 | 0.02 | 0.02 | 0.02 | 80 | 1008.6 |
| 20260506130056 | 63 | 174 | 0.9 | 2.6 | 0.02 | 0.02 | 0.02 | 79 | 1008.6 |
| 20260506124555 | 64 | 216 | 1.7 | 4.3 | 0.01 | 0.01 | 0.01 | 77 | 1008.8 |
| 20260506123057 | 64 | 202 | 0.9 | 4.3 | 0.00 | 0.00 | 0.00 | 76 | 1008.9 |
| 20260506121605 | 64 | 243 | 0.9 | 3.5 | 0.00 | 0.00 | 0.00 | 75 | 1009.2 |
| 20260506120045 | 65 | 236 | 0.9 | 6.1 | 0.00 | 0.00 | 0.00 | 74 | 1009.1 |
| 20260506114543 | 65 | 218 | 0.9 | 4.3 | 0.00 | 0.00 | 0.00 | 72 | 1008.7 |
| 20260506113040 | 65 | 213 | 1.7 | 6.1 | 0.00 | 0.00 | 0.00 | 72 | 1008.3 |
| 20260506111538 | 66 | 240 | 3.5 | 9.6 | 0.00 | 0.00 | 0.00 | 71 | 1008.5 |
| 20260506110040 | 66 | 242 | 1.7 | 7.8 | 0.00 | 0.00 | 0.00 | 69 | 1008.1 |
| 20260506104535 | 67 | 239 | 2.6 | 9.6 | 0.00 | 0.00 | 0.00 | 68 | 1008.0 |
| 20260506103033 | 67 | 250 | 1.7 | 8.7 | 0.00 | 0.00 | 0.00 | 67 | 1008.0 |
| 20260506101531 | 67 | 186 | 1.7 | 7.0 | 0.00 | 0.00 | 0.00 | 66 | 1007.8 |
| 20260506100031 | 67 | 209 | 1.7 | 4.3 | 0.00 | 0.00 | 0.00 | 66 | 1007.7 |
| 20260506094527 | 67 | 212 | 0.9 | 7.0 | 0.00 | 0.00 | 0.00 | 65 | 1007.6 |
| 20260506093025 | 68 | 207 | 0.9 | 6.1 | 0.00 | 0.00 | 0.00 | 64 | 1007.5 |
| 20260506091524 | 68 | 203 | 1.7 | 9.6 | 0.00 | 0.00 | 0.00 | 63 | 1007.8 |
| 20260506090024 | 68 | 209 | 0.0 | 6.1 | 0.00 | 0.00 | 0.00 | 62 | 1007.9 |
| 20260506084533 | 68 | 192 | 0.9 | 6.1 | 0.00 | 0.00 | 0.00 | 62 | 1007.8 |
| 20260506083024 | 69 | 269 | 1.7 | 6.1 | 0.00 | 0.00 | 0.00 | 61 | 1007.9 |
| 20260506081518 | 69 | 198 | 2.6 | 8.7 | 0.00 | 0.00 | 0.00 | 60 | 1007.8 |
| 20260506073015 | 70 | 251 | 3.5 | 7.0 | 0.00 | 0.00 | 0.00 | 58 | 1008.0 |
| 20260506071513 | 70 | 216 | 2.6 | 6.1 | 0.00 | 0.00 | 0.00 | 57 | 1008.1 |
| 20260506061508 | 70 | 196 | 0.9 | 7.8 | 0.00 | 0.00 | 0.00 | 56 | 1008.7 |
| 20260506044558 | 70 | 170 | 1.7 | 7.8 | 0.00 | 0.00 | 0.00 | 51 | 1009.2 |
| 20260506043059 | 70 | 159 | 0.9 | 3.5 | 0.00 | 0.00 | 0.00 | 51 | 1009.2 |
| 20260506041602 | 69 | 219 | 1.7 | 7.0 | 0.00 | 0.00 | 0.00 | 50 | 1009.2 |
| 20260506040049 | 69 | 135 | 1.7 | 4.3 | 0.00 | 0.00 | 0.00 | 50 | 1009.2 |
| 20260506034553 | 69 | 166 | 0.9 | 2.6 | 0.00 | 0.00 | 0.00 | 48 | 1009.2 |
| 20260506033048 | 70 | 161 | 0.0 | 2.6 | 0.00 | 0.00 | 0.00 | 47 | 1009.1 |
| 20260506031548 | 71 | 128 | 0.9 | 4.3 | 0.00 | 0.00 | 0.00 | 45 | 1009.2 |